When you browse on this site, cookies collect data to enhance your experience and personalize the content and advertising you see.
Visit our Privacy Policy to learn more. By continuing to use the site, you agree to this use of cookies and data.
  • En España
  • Lista de países
  • Para 7 días
  • Temperatura del agua
  • El tiempo en el mapa
  • Informadores
  • user-avatar
    Iniciar sesión

    Tiempo cada hora Lezhe

    Hoy, 7 Abril, Martes

    Tiempo Temperatura Precipitaciones Viento Presión Humedad
    00:00 +6°C° 0 mm 5 mps 745 mmHg 61%
    01:00 +6°C° 0 mm 4 mps 744 mmHg 64%
    02:00 +5°C° 0 mm 4 mps 744 mmHg 63%
    03:00 +5°C° 0 mm 4 mps 744 mmHg 62%
    04:00 +5°C° 0 mm 4 mps 744 mmHg 61%
    05:00 +6°C° 0 mm 4 mps 745 mmHg 59%
    06:00 +6°C° 0 mm 4 mps 745 mmHg 56%
    07:00 +8°C° 0 mm 5 mps 745 mmHg 52%
    08:00 +9°C° 0 mm 5 mps 745 mmHg 47%
    09:00 +12°C° 0 mm 5 mps 745 mmHg 42%
    10:00 +14°C° 0 mm 5 mps 745 mmHg 37%
    11:00 +15°C° 0 mm 5 mps 745 mmHg 35%
    12:00 +15°C° 0 mm 5 mps 745 mmHg 34%
    13:00 +16°C° 0 mm 5 mps 745 mmHg 33%
    14:00 +16°C° 0 mm 6 mps 744 mmHg 35%
    15:00 +15°C° 0 mm 6 mps 744 mmHg 37%
    16:00 +15°C° 0 mm 6 mps 744 mmHg 38%
    17:00 +13°C° 0 mm 6 mps 744 mmHg 42%
    18:00 +12°C° 0 mm 5 mps 745 mmHg 45%
    19:00 +9°C° 0 mm 5 mps 745 mmHg 49%
    20:00 +8°C° 0 mm 5 mps 745 mmHg 50%
    21:00 +8°C° 0 mm 5 mps 746 mmHg 52%
    22:00 +7°C° 0 mm 5 mps 746 mmHg 54%
    23:00 +6°C° 0 mm 4 mps 746 mmHg 55%

    Mañana, 8 Abril, Miércoles

    Tiempo Temperatura Precipitaciones Viento Presión Humedad
    00:00 +6°C° 0 mm 4 mps 746 mmHg 57%
    01:00 +5°C° 0 mm 4 mps 746 mmHg 59%
    02:00 +5°C° 0 mm 4 mps 746 mmHg 60%
    03:00 +5°C° 0 mm 4 mps 746 mmHg 61%
    04:00 +4°C° 0 mm 4 mps 745 mmHg 62%
    05:00 +5°C° 0 mm 4 mps 745 mmHg 59%
    06:00 +6°C° 0 mm 4 mps 745 mmHg 56%
    07:00 +7°C° 0 mm 4 mps 745 mmHg 54%
    08:00 +10°C° 0 mm 4 mps 745 mmHg 49%
    09:00 +12°C° 0 mm 5 mps 744 mmHg 44%
    10:00 +13°C° 0 mm 5 mps 744 mmHg 40%
    11:00 +14°C° 0 mm 4 mps 744 mmHg 39%
    12:00 +15°C° 0 mm 4 mps 743 mmHg 38%
    13:00 +17°C° 0 mm 4 mps 743 mmHg 37%
    14:00 +17°C° 0 mm 4 mps 743 mmHg 37%
    15:00 +17°C° 0 mm 4 mps 742 mmHg 38%
    16:00 +17°C° 0 mm 4 mps 742 mmHg 39%
    17:00 +14°C° 0 mm 4 mps 742 mmHg 45%
    18:00 +12°C° 0 mm 3 mps 742 mmHg 51%
    19:00 +10°C° 0 mm 3 mps 742 mmHg 57%
    20:00 +10°C° 0 mm 3 mps 742 mmHg 58%
    21:00 +9°C° 0 mm 3 mps 742 mmHg 59%
    22:00 +9°C° 0 mm 3 mps 743 mmHg 60%
    23:00 +8°C° 0 mm 3 mps 742 mmHg 61%

    Pasado mañana, 9 Abril, Jueves

    Tiempo Temperatura Precipitaciones Viento Presión Humedad
    00:00 +8°C° 0 mm 3 mps 742 mmHg 61%
    01:00 +8°C° 0 mm 3 mps 742 mmHg 61%
    02:00 +7°C° 0 mm 3 mps 742 mmHg 62%
    03:00 +7°C° 0 mm 3 mps 742 mmHg 62%
    04:00 +7°C° 0 mm 3 mps 741 mmHg 63%
    05:00 +8°C° 0 mm 3 mps 741 mmHg 61%
    06:00 +9°C° 0 mm 3 mps 741 mmHg 60%
    07:00 +10°C° 0 mm 3 mps 741 mmHg 58%
    08:00 +13°C° 0 mm 2 mps 741 mmHg 52%
    09:00 +15°C° 0 mm 2 mps 741 mmHg 46%
    10:00 +17°C° 0 mm 2 mps 741 mmHg 40%
    11:00 +18°C° 0 mm 3 mps 741 mmHg 38%
    12:00 +19°C° 0 mm 3 mps 740 mmHg 37%
    13:00 +19°C° 0 mm 3 mps 740 mmHg 36%
    14:00 +19°C° 0 mm 3 mps 740 mmHg 38%
    15:00 +19°C° 0 mm 3 mps 740 mmHg 40%
    16:00 +19°C° 0 mm 3 mps 739 mmHg 42%
    17:00 +17°C° 0 mm 3 mps 739 mmHg 48%
    18:00 +15°C° 0 mm 2 mps 739 mmHg 55%
    19:00 +13°C° 0 mm 2 mps 739 mmHg 61%
    20:00 +12°C° 0 mm 2 mps 740 mmHg 61%
    21:00 +12°C° 0 mm 2 mps 740 mmHg 60%
    22:00 +12°C° 0 mm 2 mps 740 mmHg 60%
    23:00 +10°C° 0 mm 2 mps 740 mmHg 61%

    10 Abril, Viernes

    Tiempo Temperatura Precipitaciones Viento Presión Humedad
    00:00 +10°C° 0 mm 2 mps 740 mmHg 61%
    01:00 +10°C° 0 mm 2 mps 740 mmHg 62%
    02:00 +9°C° 0 mm 2 mps 740 mmHg 63%
    03:00 +9°C° 0 mm 2 mps 740 mmHg 64%
    04:00 +9°C° 0 mm 2 mps 740 mmHg 65%
    05:00 +10°C° 0 mm 2 mps 740 mmHg 63%
    06:00 +12°C° 0 mm 2 mps 740 mmHg 62%
    07:00 +13°C° 0 mm 2 mps 740 mmHg 60%
    08:00 +15°C° 0 mm 2 mps 740 mmHg 54%
    09:00 +17°C° 0 mm 2 mps 740 mmHg 48%
    10:00 +19°C° 0 mm 2 mps 740 mmHg 41%
    11:00 +19°C° 0 mm 3 mps 740 mmHg 40%
    12:00 +20°C° 0 mm 3 mps 740 mmHg 39%
    13:00 +21°C° 0 mm 3 mps 740 mmHg 38%
    14:00 +21°C° 0 mm 3 mps 739 mmHg 39%
    15:00 +20°C° 0 mm 4 mps 739 mmHg 41%
    16:00 +20°C° 0 mm 4 mps 739 mmHg 42%
    17:00 +18°C° 0 mm 3 mps 739 mmHg 48%
    18:00 +16°C° 0 mm 3 mps 739 mmHg 54%
    19:00 +14°C° 0 mm 3 mps 739 mmHg 60%
    20:00 +14°C° 0 mm 2 mps 740 mmHg 61%
    21:00 +14°C° 0 mm 2 mps 740 mmHg 62%
    22:00 +13°C° 0 mm 2 mps 740 mmHg 62%
    23:00 +13°C° 0 mm 2 mps 740 mmHg 64%

    11 Abril, Sábado

    Tiempo Temperatura Precipitaciones Viento Presión Humedad
    00:00 +12°C° 0 mm 2 mps 740 mmHg 66%
    01:00 +12°C° 0 mm 2 mps 740 mmHg 67%
    02:00 +12°C° 0 mm 2 mps 740 mmHg 68%
    03:00 +10°C° 0 mm 2 mps 740 mmHg 69%
    04:00 +10°C° 0 mm 2 mps 741 mmHg 70%
    05:00 +12°C° 0 mm 2 mps 741 mmHg 68%
    06:00 +13°C° 0 mm 2 mps 741 mmHg 66%
    07:00 +14°C° 0 mm 2 mps 741 mmHg 64%
    08:00 +16°C° 0 mm 2 mps 741 mmHg 58%
    09:00 +18°C° 0 mm 2 mps 741 mmHg 52%
    10:00 +20°C° 0 mm 2 mps 741 mmHg 45%
    11:00 +20°C° 0 mm 2 mps 741 mmHg 44%
    12:00 +21°C° 0 mm 2 mps 741 mmHg 43%
    13:00 +21°C° 0 mm 2 mps 740 mmHg 41%
    14:00 +21°C° 0 mm 2 mps 740 mmHg 43%
    15:00 +20°C° 0 mm 2 mps 740 mmHg 46%
    16:00 +20°C° 0 mm 2 mps 740 mmHg 48%
    17:00 +19°C° 0 mm 1 mps 740 mmHg 54%
    18:00 +16°C° 0 mm 1 mps 740 mmHg 61%
    19:00 +15°C° 0 mm 1 mps 740 mmHg 67%
    20:00 +14°C° 0 mm 1 mps 740 mmHg 68%
    21:00 +14°C° 0 mm 1 mps 740 mmHg 69%
    22:00 +13°C° 0 mm 1 mps 741 mmHg 69%
    23:00 +13°C° 0 mm 1 mps 741 mmHg 69%

    12 Abril, Domingo

    Tiempo Temperatura Precipitaciones Viento Presión Humedad
    00:00 +13°C° 0 mm 1 mps 740 mmHg 69%
    01:00 +12°C° 0 mm 1 mps 740 mmHg 69%
    02:00 +12°C° 0 mm 1 mps 740 mmHg 69%
    03:00 +12°C° 0 mm 1 mps 740 mmHg 69%
    04:00 +12°C° 0 mm 1 mps 740 mmHg 69%
    05:00 +13°C° 0 mm 1 mps 740 mmHg 67%
    06:00 +14°C° 0 mm 1 mps 740 mmHg 64%
    07:00 +15°C° 0 mm 1 mps 740 mmHg 62%
    08:00 +18°C° 0 mm 1 mps 740 mmHg 57%
    09:00 +19°C° 0 mm 1 mps 740 mmHg 52%
    10:00 +21°C° 0 mm 1 mps 740 mmHg 46%
    11:00 +20°C° 0 mm 2 mps 739 mmHg 47%
    12:00 +20°C° 0 mm 2 mps 739 mmHg 47%
    13:00 +20°C° 0 mm 3 mps 739 mmHg 48%
    14:00 +20°C° 0 mm 3 mps 739 mmHg 50%
    15:00 +19°C° 0 mm 2 mps 739 mmHg 52%
    16:00 +19°C° 0 mm 2 mps 738 mmHg 55%
    17:00 +17°C° 0 mm 2 mps 738 mmHg 62%
    18:00 +15°C° 0 mm 1 mps 738 mmHg 69%
    19:00 +12°C° 0 mm 0 mps 738 mmHg 76%
    20:00 +13°C° 0 mm 1 mps 738 mmHg 76%
    21:00 +13°C° 0 mm 1 mps 739 mmHg 77%
    22:00 +12°C° 0 mm 1 mps 739 mmHg 78%
    23:00 +11°C° 0 mm 0 mps 739 mmHg 78%
    Mostrar más